Latest Weather Observations for Coolangatta

IDN60801

Issued at 12:32 am EDT Sunday 4 December 2016 (issued every 30 minutes, with the page automatically refreshed every 10 minutes)

About weather observations | Map of weather stations | Latest weather observations for NSW | Other Formats
Station Details ID: 040717 Name: COOLANGATTA Lat: -28.17 Lon: 153.51 Height: 4.0 m
Data from the previous 72 hours. | See also: Recent months at Coolangatta
Date/Time
EDT
Temp
°C
App
Temp
°C
Dew
Point
°C
Rel
Hum
%
Delta-T
°C
Wind Press
QNH
hPa
Press
MSL
hPa
Rain since
9am
mm
Dir  Spd
km/h
Gust
km/h
Spd
kts
Gust
kts
04/12:00am 23.0 23.1 20.0 83 1.9 WNW 19 26 10 14 1014.2 1014.1 3.2
 
Date/Time
EDT
Temp
°C
App
Temp
°C
Dew
Point
°C
Rel
Hum
%
Delta-T
°C
Wind Press
QNH
hPa
Press
MSL
hPa
Rain since
9am
mm
Dir  Spd
km/h
Gust
km/h
Spd
kts
Gust
kts
03/11:30pm 22.9 23.3 21.0 89 1.2 WNW 20 30 11 16 1015.1 1015.0 3.2
03/11:00pm 23.0 23.9 21.6 92 0.9 NW 19 28 10 15 1015.4 1015.3 3.2
03/10:30pm 22.9 24.1 21.5 92 0.9 NW 17 20 9 11 1015.7 1015.6 3.2
03/10:04pm 23.5 24.9 21.9 91 1.1 E 17 33 9 18 1014.6 1014.5 3.0
03/10:00pm 23.4 25.6 21.8 91 1.1 SSE 13 20 7 11 1016.8 1016.7 3.0
03/09:33pm 23.7 24.7 22.1 91 1.1 ESE 20 32 11 17 1017.9 1017.8 3.0
03/09:30pm 23.8 24.8 22.2 91 1.1 ESE 20 32 11 17 1016.3 1016.2 2.8
03/09:25pm 23.7 24.9 22.1 91 1.1 SSW 19 39 10 21 1017.0 1016.9 2.2
03/09:18pm 23.7 23.3 22.3 92 0.9 WSW 28 41 15 22 1019.2 1019.1 2.0
03/09:10pm 23.3 24.4 21.9 92 0.9 NW 19 30 10 16 1017.6 1017.5 2.0
03/09:00pm 23.2 25.0 21.8 92 0.9 N 15 20 8 11 1015.2 1015.1 2.0
03/08:30pm 23.2 23.1 21.5 90 1.1 NE 24 43 13 23 1014.9 1014.8 2.0
03/08:27pm 23.4 21.9 21.7 90 1.1 NE 32 46 17 25 1014.6 1014.5 1.8
03/08:17pm 23.6 23.0 22.0 91 1.1 NE 28 39 15 21 1013.9 1013.8 1.8
03/08:10pm 23.8 25.0 22.1 90 1.1 NNE 19 28 10 15 1016.1 1016.0 1.8
03/08:00pm 23.7 26.7 22.0 90 1.1 NW 9 11 5 6 1018.1 1018.0 1.6
03/07:41pm 23.8 24.9 21.9 89 1.3 W 19 26 10 14 1018.2 1018.1 0.2
03/07:30pm 23.9 25.1 21.4 86 1.6 NNE 17 22 9 12 1016.2 1016.1 0.2
03/07:00pm 24.3 27.5 21.2 83 2.0 N 6 11 3 6 1015.6 1015.5 0.2
03/06:49pm 24.6 28.1 21.1 81 2.3 SW 4 9 2 5 1015.3 1015.2 0.0
03/06:39pm 24.6 25.2 21.1 81 2.3 SW 19 35 10 19 1014.6 1014.5 0.0
03/06:32pm 24.5 25.3 21.4 83 2.0 W 19 35 10 19 1014.9 1014.8 0.0
03/06:30pm 24.4 25.3 21.5 84 1.9 WNW 19 35 10 19 1014.9 1014.8 0.0
03/06:22pm 24.2 24.8 21.3 84 1.9 NNW 20 28 11 15 1013.4 1013.3 0.0
03/06:04pm 24.1 24.7 21.0 83 2.0 NNW 19 32 10 17 1012.7 1012.6 0.0
03/06:00pm 24.1 24.5 21.0 83 2.0 NNW 20 33 11 18 1012.7 1012.6 0.0
03/05:54pm 24.1 24.1 21.0 83 2.0 NNW 22 33 12 18 1012.5 1012.4 0.0
03/05:30pm 23.5 23.8 20.8 85 1.8 N 20 26 11 14 1011.8 1011.7 0.0
03/05:00pm 23.5 24.0 20.8 85 1.8 N 19 28 10 15 1012.0 1011.9 0.0
03/04:30pm 23.6 24.1 21.1 86 1.6 N 20 26 11 14 1011.4 1011.3 0.0
03/04:23pm 23.5 23.9 21.0 86 1.6 NNE 20 28 11 15 1011.7 1011.6 0.0
03/04:13pm 23.7 23.0 21.0 85 1.8 N 26 33 14 18 1011.2 1011.1 0.0
03/04:00pm 23.9 22.7 20.8 83 2.0 N 28 35 15 19 1011.2 1011.1 0.0
03/03:30pm 25.0 23.8 20.9 78 2.7 N 28 33 15 18 1012.2 1012.1 0.0
03/03:00pm 26.4 25.1 21.4 74 3.3 N 30 43 16 23 1012.2 1012.1 0.0
03/02:30pm 26.9 26.0 21.4 72 3.7 N 28 37 15 20 1012.6 1012.5 0.0
03/02:00pm 27.0 25.9 21.7 73 3.5 N 30 37 16 20 1012.8 1012.7 0.0
03/01:30pm 27.0 25.8 21.5 72 3.7 N 30 39 16 21 1013.2 1013.1 0.0
03/01:00pm 26.3 24.4 21.3 74 3.3 N 33 44 18 24 1013.4 1013.3 0.0
03/12:30pm 27.2 25.7 21.7 72 3.7 N 32 41 17 22 1013.7 1013.6 0.0
03/12:00pm 26.6 25.2 21.1 72 3.6 N 30 39 16 21 1014.0 1013.9 0.0
03/11:30am 26.8 26.1 21.8 74 3.3 N 28 41 15 22 1014.4 1014.3 0.0
03/11:00am 25.7 25.0 21.1 76 3.0 N 26 32 14 17 1014.8 1014.7 0.0
03/10:30am 25.7 25.4 21.1 76 3.0 N 24 30 13 16 1015.1 1015.0 0.0
03/10:00am 25.4 25.2 21.3 78 2.7 N 24 30 13 16 1015.3 1015.2 0.2
03/09:30am 25.8 26.2 21.7 78 2.7 N 22 28 12 15 1015.0 1014.9 0.2
03/09:00am 24.6 25.9 21.7 84 1.9 NNW 17 20 9 11 1015.0 1014.9 0.2
03/08:30am 23.7 25.6 21.4 87 1.5 NNW 13 20 7 11 1015.0 1014.9 0.2
03/08:00am 23.1 25.1 21.5 91 1.1 N 13 19 7 10 1015.0 1014.9 0.2
03/07:50am 22.9 24.8 21.4 91 1.0 N 13 17 7 9 1014.9 1014.8 0.2
03/07:30am 22.7 24.2 21.3 92 0.9 N 15 19 8 10 1014.6 1014.5 0.2
03/07:00am 22.4 23.5 21.2 93 0.8 N 17 22 9 12 1014.2 1014.1 0.2
03/06:30am 22.4 24.2 21.2 93 0.8 N 13 17 7 9 1013.7 1013.6 0.2
03/06:00am 22.5 23.1 21.1 92 0.9 N 19 24 10 13 1013.4 1013.3 0.2
03/05:30am 22.5 24.0 21.3 93 0.8 N 15 20 8 11 1013.0 1012.9 0.2
03/05:00am 22.4 23.6 21.4 94 0.7 N 17 22 9 12 1012.5 1012.4 0.2
03/04:30am 22.4 23.6 21.4 94 0.7 N 17 22 9 12 1012.2 1012.1 0.2
03/04:00am 22.5 24.1 21.5 94 0.7 N 15 20 8 11 1012.1 1012.0 0.2
03/03:30am 22.5 24.4 21.3 93 0.8 N 13 17 7 9 1012.3 1012.2 0.2
03/03:00am 22.8 24.8 21.6 93 0.8 N 13 17 7 9 1012.6 1012.5 0.2
03/02:30am 22.7 24.3 21.5 93 0.8 N 15 19 8 10 1012.7 1012.6 0.2
03/02:00am 22.5 24.0 21.3 93 0.8 N 15 20 8 11 1012.8 1012.7 0.2
03/01:30am 22.6 24.4 21.2 92 0.9 N 13 15 7 8 1013.0 1012.9 0.2
03/01:00am 22.6 23.7 21.2 92 0.9 N 17 20 9 11 1013.3 1013.2 0.2
03/12:54am 22.7 23.8 21.3 92 0.9 N 17 20 9 11 1013.3 1013.2 0.2
03/12:30am 22.6 23.8 21.4 93 0.8 N 17 20 9 11 1013.3 1013.2 0.2
03/12:00am 22.6 23.7 21.2 92 0.9 N 17 20 9 11 1013.4 1013.3 0.2
 
Date/Time
EDT
Temp
°C
App
Temp
°C
Dew
Point
°C
Rel
Hum
%
Delta-T
°C
Wind Press
QNH
hPa
Press
MSL
hPa
Rain since
9am
mm
Dir  Spd
km/h
Gust
km/h
Spd
kts
Gust
kts
02/11:30pm 22.7 23.5 21.3 92 0.9 N 19 24 10 13 1013.4 1013.3 0.2
02/11:00pm 22.8 23.6 21.3 91 1.0 N 19 24 10 13 1013.3 1013.2 0.2
02/10:30pm 23.1 23.6 21.2 89 1.2 N 20 26 11 14 1013.1 1013.0 0.2
02/10:00pm 22.9 22.9 21.0 89 1.2 N 22 30 12 16 1012.5 1012.4 0.2
02/09:30pm 23.7 23.6 21.4 87 1.5 N 24 33 13 18 1012.2 1012.1 0.2
02/09:00pm 22.9 22.7 21.2 90 1.1 N 24 30 13 16 1012.8 1012.7 0.2
02/08:30pm 22.6 21.9 21.1 91 1.0 N 26 35 14 19 1011.6 1011.5 0.2
02/08:00pm 23.2 24.2 21.1 88 1.4 N 17 22 9 12 1012.0 1011.9 0.0
02/07:30pm 23.1 23.0 20.8 87 1.5 N 22 26 12 14 1011.3 1011.2 0.0
02/07:00pm 23.0 22.9 20.7 87 1.5 N 22 26 12 14 1010.8 1010.7 0.0
02/06:30pm 23.7 23.1 20.6 83 2.0 N 24 35 13 19 1010.3 1010.2 0.0
02/06:00pm 24.3 23.5 20.8 81 2.3 N 26 35 14 19 1010.0 1009.9 0.0
02/05:30pm 24.7 23.4 20.6 78 2.7 N 28 37 15 20 1009.6 1009.5 0.0
02/05:00pm 25.4 24.1 20.6 75 3.1 N 28 35 15 19 1009.4 1009.3 0.0
02/04:30pm 25.9 24.4 20.9 74 3.3 N 30 37 16 20 1009.3 1009.2 0.0
02/04:00pm 25.7 23.6 20.5 73 3.4 N 32 44 17 24 1009.4 1009.3 0.0
02/03:30pm 26.4 24.5 20.9 72 3.6 N 32 41 17 22 1009.6 1009.5 0.0
02/03:00pm 25.9 23.9 21.1 75 3.2 N 33 43 18 23 1009.8 1009.7 0.0
02/02:30pm 25.6 23.4 20.8 75 3.2 N 33 43 18 23 1010.1 1010.0 0.0
02/02:00pm 25.6 23.3 20.6 74 3.3 N 33 43 18 23 1010.0 1009.9 0.0
02/01:30pm 26.2 24.2 20.8 72 3.6 N 32 43 17 23 1010.2 1010.1 0.0
02/01:00pm 26.1 23.9 20.4 71 3.7 N 32 41 17 22 1010.3 1010.2 0.0
02/12:30pm 25.9 24.2 20.5 72 3.5 NNE 30 41 16 22 1010.7 1010.6 0.0
02/12:00pm 25.7 23.9 20.3 72 3.5 NNE 30 37 16 20 1011.0 1010.9 0.0
02/11:30am 25.8 24.5 20.6 73 3.4 NNE 28 35 15 19 1011.3 1011.2 0.0
02/11:00am 25.4 23.1 19.3 69 3.9 N 30 39 16 21 1011.3 1011.2 0.0
02/10:30am 25.3 23.0 19.4 70 3.8 N 30 39 16 21 1011.5 1011.4 0.0
02/10:00am 25.6 23.3 19.3 68 4.0 N 30 37 16 20 1011.7 1011.6 2.4
02/09:30am 25.3 23.1 18.7 67 4.2 N 28 35 15 19 1011.9 1011.8 2.4
02/09:00am 23.9 21.9 19.2 75 3.0 N 28 33 15 18 1011.7 1011.6 2.4
02/08:30am 24.8 23.5 19.0 70 3.7 N 24 32 13 17 1011.7 1011.6 2.4
02/08:00am 24.1 22.1 18.3 70 3.7 NNW 26 35 14 19 1011.5 1011.4 2.4
02/07:30am 23.5 22.5 18.8 75 3.0 NNW 22 33 12 18 1011.2 1011.1 2.4
02/07:00am 22.9 22.6 19.5 81 2.2 NNW 20 32 11 17 1011.0 1010.9 2.4
02/06:30am 22.4 22.1 19.2 82 2.0 NNW 19 30 10 16 1011.0 1010.9 2.4
02/06:00am 21.8 21.8 19.0 84 1.8 NW 17 24 9 13 1010.8 1010.7 2.4
02/05:30am 21.9 21.8 18.7 82 2.0 NW 17 24 9 13 1010.5 1010.4 2.4
02/05:00am 22.1 21.8 18.3 79 2.4 NNW 17 26 9 14 1010.3 1010.2 2.4
02/04:30am 22.2 21.4 18.0 77 2.6 NW 19 28 10 15 1010.2 1010.1 2.4
02/04:00am 22.0 22.2 18.6 81 2.1 NNW 15 22 8 12 1009.9 1009.8 2.4
02/03:30am 22.3 23.2 20.0 87 1.5 NW 15 22 8 12 1009.8 1009.7 2.4
02/03:00am 22.4 23.4 20.3 88 1.4 NW 15 20 8 11 1009.8 1009.7 2.4
02/02:30am 22.4 23.0 20.3 88 1.4 NW 17 24 9 13 1010.1 1010.0 2.4
02/02:00am 22.4 23.3 20.1 87 1.5 NNW 15 22 8 12 1010.2 1010.1 2.4
02/01:30am 22.3 23.2 20.0 87 1.5 NW 15 22 8 12 1010.5 1010.4 2.4
02/01:00am 22.1 23.3 20.0 88 1.3 NW 13 17 7 9 1010.8 1010.7 2.4
02/12:30am 22.4 23.3 20.1 87 1.5 NW 15 20 8 11 1011.0 1010.9 2.4
02/12:00am 22.6 23.2 20.3 87 1.5 NW 17 22 9 12 1011.3 1011.2 2.4
 
Date/Time
EDT
Temp
°C
App
Temp
°C
Dew
Point
°C
Rel
Hum
%
Delta-T
°C
Wind Press
QNH
hPa
Press
MSL
hPa
Rain since
9am
mm
Dir  Spd
km/h
Gust
km/h
Spd
kts
Gust
kts
01/11:30pm 22.9 23.2 20.4 86 1.6 NW 19 26 10 14 1011.5 1011.4 2.4
01/11:00pm 22.9 22.9 20.2 85 1.7 NW 20 28 11 15 1011.7 1011.6 2.4
01/10:30pm 22.6 22.4 19.8 84 1.8 NNW 20 28 11 15 1011.8 1011.7 2.4
01/10:00pm 22.6 22.3 19.6 83 1.9 NNW 20 30 11 16 1011.8 1011.7 2.4
01/09:30pm 22.2 23.0 19.9 87 1.5 NW 15 20 8 11 1011.7 1011.6 2.4
01/09:00pm 22.3 22.3 19.8 86 1.6 NNW 19 26 10 14 1011.4 1011.3 2.4
01/08:30pm 22.5 23.0 20.0 86 1.6 NNW 17 24 9 13 1011.2 1011.1 2.4
01/08:00pm 22.3 22.6 20.4 89 1.2 NNW 19 26 10 14 1010.8 1010.7 2.4
01/07:30pm 22.0 22.1 20.3 90 1.1 N 20 32 11 17 1010.1 1010.0 2.4
01/07:00pm 21.1 20.9 18.5 85 1.6 NW 17 20 9 11 1009.6 1009.5 2.4
01/06:30pm 21.1 18.6 18.9 87 1.4 N 30 39 16 21 1008.6 1008.5 1.8
01/06:06pm 22.8 21.2 20.7 88 1.4 N 30 50 16 27 1008.5 1008.4 1.8
01/06:00pm 22.8 22.5 21.1 90 1.1 NNW 24 33 13 18 1008.6 1008.5 1.8
01/05:56pm 22.7 23.0 20.8 89 1.2 N 20 28 11 15 1008.4 1008.3 1.8
01/05:48pm 22.9 23.6 21.2 90 1.1 NNW 19 24 10 13 1008.5 1008.4 1.8
01/05:38pm 22.8 23.4 21.1 90 1.1 NNW 19 24 10 13 1009.6 1009.5 1.4
01/05:30pm 23.2 23.7 20.9 87 1.5 NNE 19 24 10 13 1008.1 1008.0 0.8
01/05:00pm 23.5 22.2 19.8 80 2.4 NNE 26 35 14 19 1007.2 1007.1 0.0
01/04:50pm 23.6 21.9 19.7 79 2.5 NNE 28 37 15 20 1007.6 1007.5 0.0
01/04:40pm 23.8 23.5 19.5 77 2.8 NNE 20 30 11 16 1007.6 1007.5 0.0
01/04:30pm 23.9 23.2 19.6 77 2.8 NE 22 32 12 17 1007.8 1007.7 0.0
01/04:00pm 24.0 22.4 19.3 75 3.0 N 26 37 14 20 1007.5 1007.4 0.0
01/03:30pm 26.4 24.0 19.0 63 4.7 N 30 39 16 21 1007.9 1007.8 0.0
01/03:00pm 25.8 22.6 18.2 63 4.8 N 32 43 17 23 1008.1 1008.0 0.0
01/02:30pm 26.4 23.3 18.3 61 5.1 N 32 41 17 22 1008.5 1008.4 0.0
01/02:00pm 25.6 23.8 19.5 69 3.9 NNE 28 39 15 21 1008.8 1008.7 0.0
01/01:30pm 25.5 23.2 19.4 69 3.9 NNE 30 39 16 21 1009.3 1009.2 0.0
01/01:00pm 26.5 24.3 19.6 66 4.5 NNE 30 39 16 21 1009.6 1009.5 0.0
01/12:30pm 25.9 22.8 18.8 65 4.5 N 33 43 18 23 1010.0 1009.9 0.0
01/12:00pm 26.5 23.5 18.6 62 5.0 N 32 41 17 22 1010.4 1010.3 0.0
01/11:30am 26.0 23.5 18.9 65 4.5 NNE 30 37 16 20 1010.8 1010.7 0.0
01/11:00am 26.2 23.6 19.6 67 4.3 N 32 39 17 21 1011.3 1011.2 0.0
01/10:30am 26.0 23.7 19.4 67 4.3 N 30 37 16 20 1011.4 1011.3 0.0
01/10:00am 25.5 22.8 19.2 68 4.0 N 32 39 17 21 1011.4 1011.3 0.6
01/09:30am 25.3 23.1 18.7 67 4.2 N 28 35 15 19 1011.2 1011.1 0.6
01/09:00am 25.8 23.4 18.2 63 4.8 NNW 28 35 15 19 1011.4 1011.3 0.6
01/08:30am 25.2 24.3 18.2 65 4.4 NNW 20 32 11 17 1011.4 1011.3 0.6
01/08:00am 24.3 24.0 18.2 68 3.8 NNW 17 26 9 14 1011.4 1011.3 0.6
01/07:30am 23.3 23.0 18.2 73 3.2 NW 17 24 9 13 1011.4 1011.3 0.6
01/07:00am 22.3 22.8 18.3 78 2.5 NNW 13 20 7 11 1011.1 1011.0 0.6
01/06:30am 21.2 21.1 17.8 81 2.1 NW 15 20 8 11 1010.8 1010.7 0.6
01/06:00am 20.5 20.7 17.7 84 1.7 NW 13 17 7 9 1010.5 1010.4 0.6
01/05:30am 19.9 20.1 17.7 87 1.4 NW 13 17 7 9 1010.5 1010.4 0.6
01/05:00am 19.5 19.8 18.0 91 0.9 WNW 13 17 7 9 1010.3 1010.2 0.6
01/04:30am 17.4 18.4 16.3 93 0.7 W 6 7 3 4 1010.2 1010.1 0.6
01/04:00am 18.3 20.0 17.1 93 0.7 WSW 4 7 2 4 1010.3 1010.2 0.6
01/03:30am 18.4 19.7 17.1 92 0.8 WSW 6 7 3 4 1010.6 1010.5 0.6
01/03:00am 18.1 18.8 17.0 93 0.7 WNW 9 11 5 6 1010.5 1010.4 0.6
01/02:30am 19.2 21.9 17.7 91 0.9 CALM 0 0 0 0 1010.9 1010.8 0.6
01/02:00am 19.3 21.5 17.4 89 1.2 S 2 7 1 4 1010.9 1010.8 0.6

Other Formats:

Comma delimited format used in spreadsheet applications
http://www.bom.gov.au/fwo/IDN60801/IDN60801.94592.axf

JavaScript Object Notation format (JSON) in row-major order
http://www.bom.gov.au/fwo/IDN60801/IDN60801.94592.json